SCP
-0 0 -0 -0 -0 -0 -0 -0 -0 -0 -0 -0 -0 -0 -0 -0 -0 -0 -0 -0 -0 -0 -0 0 0 0 0 0 0 0 0 0 0 0 0 0 0 0 0 0 0 0 0
-0 0 0 0 -0 -0 -0 -0 -0 -0 -0 -0 -0 -0 -0 -0 -0 -0 -0 -0 -0 -0 -0 0 0 0 0 0 0 0 0 0 0 0 0 0 0 0 0 0 0 0 0
0 0 0 0 -0 -0 -0 -0 0 -0 -0 -0 -0 -0 -0 -0 -0 -0 -0 -0 -0 -0 0 0 0 0 0 0 0 0 0 0 0 0 0 0 0 0 0 0 0 0 0
0 0 0 0 0 -0 -0 0 0 -0 -0 -0 -0 -0 -0 -0 -0 -0 -0 -0 -0 0 0 0 0 0 0 0 0 0 0 0 0 0 0 0 0 1 0 0 0 0 0
0 0 0 0 0 -0 0 0 0 0 -0 -0 -0 -0 -0 -0 -0 -0 0 -0 0 0 0 0 0 0 0 0 0 0 0 0 0 0 0 0 0 1 1 1 0 0 1
-0 0 0 0 0 0 -0 0 0 0 0 0 0 0 0 0 0 0 0 0 0 0 0 0 0 0 0 0 0 0 0 0 0 0 0 0 0 1 0 0 0 0 0
-0 0 0 0 0 0 -0 0 0 0 0 0 0 0 0 0 0 0 0 0 0 0 0 0 0 0 0 0 0 0 0 0 0 0 0 0 0 0 0 0 0 0 0
0 0 0 0 0 0 0 0 0 0 0 0 0 0 0 0 0 0 0 0 0 0 0 0 0 0 0 0 0 0 0 0 0 0 0 -0 0 0 0 0 1 1 1
0 0 0 0 0 0 0 0 0 0 0 0 0 0 0 0 0 0 0 0 0 0 0 0 0 0 0 0 0 0 0 0 0 0 0 0 0 1 1 1 1 2 1
0 0 0 0 0 0 0 0 0 0 0 0 0 0 0 0 0 0 0 0 0 0 0 0 0 0 0 0 0 0 0 0 0 0 0 0 1 1 1 1 1 2 1
0 0 0 0 0 0 0 0 0 0 0 0 0 0 0 0 0 0 0 0 0 0 0 0 0 0 0 0 0 0 0 0 0 0 0 1 1 1 1 2 2 2 2
0 0 0 0 0 0 0 0 0 0 0 0 0 -0 -0 -0 0 0 0 0 0 0 0 0 0 0 0 0 0 0 0 0 0 0 -0 0 0 1 2 2 2 2 1
0 0 0 0 0 0 0 0 0 0 0 -0 0 -0 -0 0 0 0 0 0 0 0 0 0 0 0 0 0 0 0 0 0 0 0 1 1 2 2 1 1 1 1 1
0 0 0 0 0 0 0 0 0 0 0 0 0 -0 0 0 0 0 0 0 0 0 0 0 0 1 1 0 0 1 0 1 1 0 0 3 2 1 1 1 1 0 0
0 0 0 0 0 0 0 0 -0 -0 0 0 0 -0 0 -0 0 0 0 0 0 0 0 1 1 1 1 0 1 1 1 1 0 0 1 2 1 1 0 0 0 0 0
1 0 0 0 1 0 0 -0 0 0 0 0 0 0 -0 0 0 0 0 0 0 0 1 1 1 1 1 1 1 1 1 1 0 1 1 0 0 1 0 0 0 0 0
2 2 1 0 1 0 1 1 1 0 0 0 0 0 0 0 0 0 0 0 1 1 1 1 1 1 1 1 0 0 0 0 0 0 0 0 -0 0 0 0 0 0 0
3 2 2 0 1 1 1 2 1 0 0 0 0 0 0 0 0 0 0 1 1 1 1 1 1 1 1 0 0 0 0 1 0 0 0 0 0 0 0 0 0 0 0
5 3 3 1 1 2 1 0 0 0 1 1 0 0 0 0 0 0 1 2 1 1 1 1 0 0 0 0 0 0 0 1 0 0 0 0 0 0 0 0 0 0 0
5 4 4 2 1 1 0 -0 1 1 1 1 0 0 0 0 0 1 1 1 1 1 1 0 0 0 0 0 0 0 0 0 0 0 0 0 0 0 0 0 0 0 0
4 3 2 2 1 1 0 0 1 1 0 1 1 1 1 1 1 1 1 1 0 0 0 0 0 -0 0 0 0 0 0 0 0 0 0 0 0 0 0 0 0 0 0
2 2 2 2 2 2 0 1 0 0 0 0 0 0 0 1 1 1 1 1 0 0 0 0 0 0 0 0 0 0 0 0 0 0 0 0 0 0 0 0 0 0 0
2 2 2 2 1 0 0 1 1 1 1 1 0 0 0 0 0 0 0 0 0 0 0 0 0 0 0 0 0 0 0 0 0 0 0 0 0 0 0 0 0 0 0
2 2 2 1 0 0 0 1 1 1 1 1 0 0 0 0 0 0 0 0 0 0 0 0 0 0 0 0 0 0 0 0 0 0 0 0 0 0 0 0 0 0 0
2 1 1 1 1 0 0 2 1 1 1 0 0 0 0 0 0 0 0 0 0 0 0 0 0 0 0 0 0 0 0 0 0 0 0 0 0 0 0 0 0 0 0
1 2 1 1 0 0 1 1 1 1 1 0 0 0 0 0 0 0 0 0 0 0 0 0 0 0 0 0 0 0 0 0 0 0 0 0 0 0 0 0 0 0 0
Wind_Speed_500mb
53 57 52 50 48 42 41 37 32 28 31 32 32 34 34 33 33 31 28 25 22 20 19 17 15 14 13 11 10 10 10 10 11 15 19 13 19 26 30 26 24 23 20
50 56 52 50 47 41 39 37 32 29 30 30 30 31 31 30 28 25 21 19 17 16 13 13 12 9 8 7 7 7 7 11 14 17 22 22 21 17 28 33 26 25 22
42 54 53 49 46 39 38 38 34 30 29 28 28 28 28 27 24 21 18 14 14 12 10 9 7 4 4 4 3 6 10 12 15 16 18 21 29 14 29 32 29 26 26
42 54 54 50 45 39 38 38 35 32 28 26 25 26 25 23 20 18 14 12 10 9 7 7 4 3 3 5 7 11 15 16 17 15 15 24 27 16 36 33 37 36 29
43 53 51 49 44 40 38 40 36 32 28 24 22 22 22 20 19 17 14 10 10 8 7 6 4 4 5 8 13 18 21 21 22 20 18 42 27 34 35 39 48 45 36
46 50 50 47 42 40 39 39 35 32 27 22 21 21 20 19 17 15 13 11 10 9 6 3 3 7 10 14 17 22 26 29 32 32 24 17 29 34 34 43 47 40 37
48 50 50 44 41 40 41 38 34 31 25 20 20 20 19 18 18 16 13 11 9 6 1 3 9 13 17 21 25 29 32 35 36 36 29 15 27 36 38 44 44 40 37
48 46 52 45 43 41 40 39 35 30 25 21 22 20 18 18 17 15 12 8 4 2 6 10 15 19 22 25 27 31 36 38 39 35 31 12 26 36 37 37 47 43 39
43 47 53 48 45 43 40 39 36 30 24 23 23 19 17 16 14 11 8 5 4 8 11 14 18 21 24 26 28 33 42 41 34 23 30 24 33 31 35 43 53 50 44
39 49 54 50 47 45 43 38 36 30 27 26 23 20 17 15 12 10 7 4 4 8 11 14 18 21 25 28 27 32 38 34 34 38 39 16 34 42 39 49 57 53 48
45 45 49 51 49 46 44 43 37 33 31 27 24 20 15 12 8 4 3 2 5 7 11 16 20 24 21 23 28 33 33 38 41 37 39 32 31 38 45 55 61 59 56
48 49 47 46 46 42 46 45 40 36 32 28 24 23 20 9 4 3 7 11 10 12 8 15 16 21 15 22 21 27 28 32 29 34 36 38 51 52 54 55 56 55 55
49 51 45 42 46 39 43 47 41 37 32 25 25 27 21 23 16 14 2 7 12 9 6 17 14 18 20 18 18 14 20 25 29 34 35 46 45 40 50 52 52 51 48
57 56 54 52 55 45 38 39 36 33 27 23 21 28 22 25 16 12 15 6 12 9 10 12 9 15 15 22 23 21 22 15 17 27 32 40 33 50 33 51 42 43 46
67 66 59 53 55 51 35 44 34 29 25 23 27 25 21 22 21 19 17 27 18 20 10 17 10 16 16 18 18 25 23 22 25 25 31 45 39 57 45 42 46 47 51
68 72 69 62 58 46 43 43 38 43 31 36 22 20 23 22 25 18 24 13 8 17 20 14 20 23 23 23 27 23 25 29 27 29 31 38 32 30 34 42 50 58 64
76 73 68 59 62 48 40 51 45 39 35 25 18 25 21 24 25 25 12 18 12 22 9 13 15 21 18 22 28 32 39 33 28 28 22 28 42 33 40 50 56 61 51
77 72 64 58 63 57 47 56 47 40 22 27 28 28 26 24 18 20 13 9 22 13 10 12 15 24 23 31 28 28 29 18 24 20 28 32 32 32 43 60 57 39 46
82 75 61 61 69 62 50 48 38 37 34 33 21 13 14 17 17 19 14 21 12 5 10 20 25 30 29 27 31 28 18 19 10 21 25 26 33 41 57 49 44 34 41
78 75 69 64 60 62 47 47 39 38 29 27 22 20 16 15 16 20 16 17 7 10 25 23 31 21 19 28 19 25 25 6 4 20 13 27 37 51 34 47 41 49 36
77 75 72 61 59 62 53 51 46 44 31 25 29 21 19 23 25 12 7 15 15 17 25 27 24 16 12 26 24 26 22 12 14 24 21 33 41 43 32 47 46 48 46
69 64 69 67 65 62 61 58 47 45 35 33 32 27 24 21 18 21 19 18 21 13 26 17 14 8 6 23 24 19 19 15 15 24 31 36 48 40 37 50 32 52 48
62 68 70 62 65 59 60 50 42 42 45 29 27 30 30 25 19 16 15 18 12 9 17 2 6 10 13 19 27 21 12 14 25 18 30 42 44 39 45 40 37 61 53
69 69 58 56 69 60 62 52 50 57 46 35 33 28 19 13 7 7 3 5 3 4 6 8 11 13 9 17 16 24 25 21 23 23 36 39 45 35 33 36 44 53 48
67 59 56 62 67 57 52 54 55 39 36 37 34 28 12 12 9 10 9 5 2 8 10 11 12 11 13 16 23 20 22 14 19 28 27 49 45 38 44 36 56 40 55
66 62 59 65 65 66 50 50 47 40 39 43 37 22 18 17 16 15 10 7 7 8 11 14 19 17 21 19 30 28 24 23 26 30 35 39 40 39 44 42 56 50 66
Wind_Direction_500mb
150 152 150 150 149 148 146 149 146 136 128 124 125 124 126 131 131 129 122 117 104 97 94 97 99 98 102 106 110 106 93 68 46 38 30 29 28 21 7 359 1 3 0
159 155 151 150 149 150 150 154 151 143 134 130 129 127 129 133 134 133 127 118 103 98 98 98 95 98 105 107 106 90 53 32 26 35 31 19 349 349 357 344 340 341 344
162 157 153 150 148 151 155 160 157 149 141 136 134 132 134 137 134 135 131 124 113 110 104 97 91 90 80 83 43 10 11 16 15 17 11 353 340 304 336 331 329 324 321
163 161 155 151 149 149 157 164 161 155 148 144 140 135 136 141 141 142 141 135 126 120 111 99 93 62 26 353 342 343 345 346 347 359 9 6 348 296 317 313 320 321 315
160 165 158 151 149 150 159 166 165 159 154 151 143 136 137 142 142 143 147 149 134 117 102 92 60 23 338 328 328 330 330 328 327 329 341 337 295 303 306 310 315 315 309
152 165 158 151 150 152 159 166 167 163 161 156 147 142 137 141 141 142 149 147 130 121 111 68 356 325 322 323 326 325 324 324 323 322 321 306 319 306 299 310 318 315 311
151 159 156 153 151 155 158 166 170 169 168 160 152 145 139 139 137 141 144 139 133 130 101 332 323 323 323 324 327 325 325 326 325 327 327 293 303 294 301 305 323 322 318
167 160 155 155 155 158 162 169 174 176 173 165 157 150 144 140 141 143 145 147 160 263 302 322 319 321 325 331 333 336 338 335 334 339 343 343 297 290 293 302 322 319 311
174 167 158 157 160 162 167 173 176 180 176 168 159 155 150 149 153 154 163 191 258 294 318 321 326 332 338 342 349 359 358 348 341 358 347 336 291 299 305 311 320 318 313
163 166 161 161 162 164 170 175 177 178 174 168 163 158 158 159 157 165 186 201 285 320 330 338 342 346 356 358 7 346 356 360 350 345 344 301 303 306 311 317 320 317 310
150 161 162 163 165 166 171 173 174 173 170 169 163 158 156 151 167 169 182 35 358 342 1 6 0 15 16 13 6 344 345 348 346 337 318 299 312 320 320 318 322 319 311
160 162 168 164 162 167 170 168 169 170 170 168 164 138 119 85 122 316 24 18 0 10 9 350 8 10 5 349 351 331 340 344 331 331 326 327 328 325 319 318 318 321 316
165 161 163 164 152 162 170 166 169 169 164 159 157 145 134 188 211 212 355 335 357 32 9 332 349 335 339 326 313 349 327 324 321 319 327 320 316 321 324 317 321 322 321
166 168 168 169 164 173 172 161 165 161 155 162 173 168 182 193 217 193 232 215 341 294 284 310 308 308 310 314 336 301 279 287 319 327 336 316 310 323 322 322 323 329 325
168 169 173 172 166 181 175 165 154 157 161 182 202 193 193 176 226 202 212 221 225 230 283 275 305 289 290 306 324 323 327 325 332 355 321 316 317 318 334 330 336 334 329
168 171 174 171 169 183 161 169 165 170 169 187 208 193 179 187 230 218 233 234 243 249 244 264 284 280 297 311 297 311 326 314 324 340 331 334 356 335 339 339 330 327 326
166 164 174 174 170 173 171 172 172 170 181 181 185 218 207 193 229 196 212 225 241 255 281 292 310 316 323 298 312 341 357 15 360 330 332 348 345 345 334 327 328 324 325
167 172 177 175 175 176 182 173 172 167 178 167 209 226 226 206 235 206 208 192 234 271 306 306 316 330 328 326 327 345 330 12 340 349 356 340 332 331 327 324 332 332 337
171 172 171 178 183 178 186 178 165 175 171 186 190 239 228 218 225 178 218 242 265 320 315 291 311 324 334 331 323 318 12 1 354 339 358 344 336 335 328 332 353 341 333
174 178 174 181 185 182 183 163 176 179 175 189 181 207 236 194 219 210 213 245 231 212 258 290 328 338 341 319 348 336 18 21 346 13 7 339 335 336 349 345 344 343 349
171 176 184 189 184 174 173 173 185 185 181 171 172 196 199 197 206 222 205 262 263 264 285 313 334 359 1 321 341 6 60 14 5 33 17 353 351 2 338 354 344 353 343
173 183 181 188 181 174 180 173 186 169 176 184 194 197 203 199 201 215 219 256 287 308 296 316 342 100 19 342 7 7 3 360 0 35 27 3 356 3 346 5 341 346 342
177 180 183 190 184 176 173 171 164 183 179 181 189 193 205 216 226 249 266 276 290 223 288 3 19 49 71 28 11 29 30 12 356 7 25 9 356 16 354 4 336 344 341
172 177 184 180 169 173 167 177 182 189 187 180 198 210 220 218 212 223 207 111 82 81 48 61 53 53 68 56 47 41 53 28 19 346 14 2 2 26 356 351 346 354 346
166 171 181 178 171 170 169 183 185 178 186 186 196 206 195 178 167 144 128 120 65 67 61 55 60 39 71 75 71 66 81 70 20 6 355 357 3 17 359 347 352 347 338
164 170 180 175 163 170 174 185 188 181 183 178 189 197 171 163 156 150 149 129 109 77 61 46 51 60 76 84 79 60 53 37 22 12 2 357 353 4 350 347 354 337 336
Wind_Speed_850mb
53 57 52 50 48 42 41 37 32 28 31 32 32 34 34 33 33 31 28 25 22 20 19 17 15 14 13 11 10 10 10 10 11 15 19 13 19 26 30 26 24 23 20
50 56 52 50 47 41 39 37 32 29 30 30 30 31 31 30 28 25 21 19 17 16 13 13 12 9 8 7 7 7 7 11 14 17 22 22 21 17 28 33 26 25 22
42 54 53 49 46 39 38 38 34 30 29 28 28 28 28 27 24 21 18 14 14 12 10 9 7 4 4 4 3 6 10 12 15 16 18 21 29 14 29 32 29 26 26
42 54 54 50 45 39 38 38 35 32 28 26 25 26 25 23 20 18 14 12 10 9 7 7 4 3 3 5 7 11 15 16 17 15 15 24 27 16 36 33 37 36 29
43 53 51 49 44 40 38 40 36 32 28 24 22 22 22 20 19 17 14 10 10 8 7 6 4 4 5 8 13 18 21 21 22 20 18 42 27 34 35 39 48 45 36
46 50 50 47 42 40 39 39 35 32 27 22 21 21 20 19 17 15 13 11 10 9 6 3 3 7 10 14 17 22 26 29 32 32 24 17 29 34 34 43 47 40 37
48 50 50 44 41 40 41 38 34 31 25 20 20 20 19 18 18 16 13 11 9 6 1 3 9 13 17 21 25 29 32 35 36 36 29 15 27 36 38 44 44 40 37
48 46 52 45 43 41 40 39 35 30 25 21 22 20 18 18 17 15 12 8 4 2 6 10 15 19 22 25 27 31 36 38 39 35 31 12 26 36 37 37 47 43 39
43 47 53 48 45 43 40 39 36 30 24 23 23 19 17 16 14 11 8 5 4 8 11 14 18 21 24 26 28 33 42 41 34 23 30 24 33 31 35 43 53 50 44
39 49 54 50 47 45 43 38 36 30 27 26 23 20 17 15 12 10 7 4 4 8 11 14 18 21 25 28 27 32 38 34 34 38 39 16 34 42 39 49 57 53 48
45 45 49 51 49 46 44 43 37 33 31 27 24 20 15 12 8 4 3 2 5 7 11 16 20 24 21 23 28 33 33 38 41 37 39 32 31 38 45 55 61 59 56
48 49 47 46 46 42 46 45 40 36 32 28 24 23 20 9 4 3 7 11 10 12 8 15 16 21 15 22 21 27 28 32 29 34 36 38 51 52 54 55 56 55 55
49 51 45 42 46 39 43 47 41 37 32 25 25 27 21 23 16 14 2 7 12 9 6 17 14 18 20 18 18 14 20 25 29 34 35 46 45 40 50 52 52 51 48
57 56 54 52 55 45 38 39 36 33 27 23 21 28 22 25 16 12 15 6 12 9 10 12 9 15 15 22 23 21 22 15 17 27 32 40 33 50 33 51 42 43 46
67 66 59 53 55 51 35 44 34 29 25 23 27 25 21 22 21 19 17 27 18 20 10 17 10 16 16 18 18 25 23 22 25 25 31 45 39 57 45 42 46 47 51
68 72 69 62 58 46 43 43 38 43 31 36 22 20 23 22 25 18 24 13 8 17 20 14 20 23 23 23 27 23 25 29 27 29 31 38 32 30 34 42 50 58 64
76 73 68 59 62 48 40 51 45 39 35 25 18 25 21 24 25 25 12 18 12 22 9 13 15 21 18 22 28 32 39 33 28 28 22 28 42 33 40 50 56 61 51
77 72 64 58 63 57 47 56 47 40 22 27 28 28 26 24 18 20 13 9 22 13 10 12 15 24 23 31 28 28 29 18 24 20 28 32 32 32 43 60 57 39 46
82 75 61 61 69 62 50 48 38 37 34 33 21 13 14 17 17 19 14 21 12 5 10 20 25 30 29 27 31 28 18 19 10 21 25 26 33 41 57 49 44 34 41
78 75 69 64 60 62 47 47 39 38 29 27 22 20 16 15 16 20 16 17 7 10 25 23 31 21 19 28 19 25 25 6 4 20 13 27 37 51 34 47 41 49 36
77 75 72 61 59 62 53 51 46 44 31 25 29 21 19 23 25 12 7 15 15 17 25 27 24 16 12 26 24 26 22 12 14 24 21 33 41 43 32 47 46 48 46
69 64 69 67 65 62 61 58 47 45 35 33 32 27 24 21 18 21 19 18 21 13 26 17 14 8 6 23 24 19 19 15 15 24 31 36 48 40 37 50 32 52 48
62 68 70 62 65 59 60 50 42 42 45 29 27 30 30 25 19 16 15 18 12 9 17 2 6 10 13 19 27 21 12 14 25 18 30 42 44 39 45 40 37 61 53
69 69 58 56 69 60 62 52 50 57 46 35 33 28 19 13 7 7 3 5 3 4 6 8 11 13 9 17 16 24 25 21 23 23 36 39 45 35 33 36 44 53 48
67 59 56 62 67 57 52 54 55 39 36 37 34 28 12 12 9 10 9 5 2 8 10 11 12 11 13 16 23 20 22 14 19 28 27 49 45 38 44 36 56 40 55
66 62 59 65 65 66 50 50 47 40 39 43 37 22 18 17 16 15 10 7 7 8 11 14 19 17 21 19 30 28 24 23 26 30 35 39 40 39 44 42 56 50 66
Wind_Direction_850mb
150 152 150 150 149 148 146 149 146 136 128 124 125 124 126 131 131 129 122 117 104 97 94 97 99 98 102 106 110 106 93 68 46 38 30 29 28 21 7 359 1 3 0
159 155 151 150 149 150 150 154 151 143 134 130 129 127 129 133 134 133 127 118 103 98 98 98 95 98 105 107 106 90 53 32 26 35 31 19 349 349 357 344 340 341 344
162 157 153 150 148 151 155 160 157 149 141 136 134 132 134 137 134 135 131 124 113 110 104 97 91 90 80 83 43 10 11 16 15 17 11 353 340 304 336 331 329 324 321
163 161 155 151 149 149 157 164 161 155 148 144 140 135 136 141 141 142 141 135 126 120 111 99 93 62 26 353 342 343 345 346 347 359 9 6 348 296 317 313 320 321 315
160 165 158 151 149 150 159 166 165 159 154 151 143 136 137 142 142 143 147 149 134 117 102 92 60 23 338 328 328 330 330 328 327 329 341 337 295 303 306 310 315 315 309
152 165 158 151 150 152 159 166 167 163 161 156 147 142 137 141 141 142 149 147 130 121 111 68 356 325 322 323 326 325 324 324 323 322 321 306 319 306 299 310 318 315 311
151 159 156 153 151 155 158 166 170 169 168 160 152 145 139 139 137 141 144 139 133 130 101 332 323 323 323 324 327 325 325 326 325 327 327 293 303 294 301 305 323 322 318
167 160 155 155 155 158 162 169 174 176 173 165 157 150 144 140 141 143 145 147 160 263 302 322 319 321 325 331 333 336 338 335 334 339 343 343 297 290 293 302 322 319 311
174 167 158 157 160 162 167 173 176 180 176 168 159 155 150 149 153 154 163 191 258 294 318 321 326 332 338 342 349 359 358 348 341 358 347 336 291 299 305 311 320 318 313
163 166 161 161 162 164 170 175 177 178 174 168 163 158 158 159 157 165 186 201 285 320 330 338 342 346 356 358 7 346 356 360 350 345 344 301 303 306 311 317 320 317 310
150 161 162 163 165 166 171 173 174 173 170 169 163 158 156 151 167 169 182 35 358 342 1 6 0 15 16 13 6 344 345 348 346 337 318 299 312 320 320 318 322 319 311
160 162 168 164 162 167 170 168 169 170 170 168 164 138 119 85 122 316 24 18 0 10 9 350 8 10 5 349 351 331 340 344 331 331 326 327 328 325 319 318 318 321 316
165 161 163 164 152 162 170 166 169 169 164 159 157 145 134 188 211 212 355 335 357 32 9 332 349 335 339 326 313 349 327 324 321 319 327 320 316 321 324 317 321 322 321
166 168 168 169 164 173 172 161 165 161 155 162 173 168 182 193 217 193 232 215 341 294 284 310 308 308 310 314 336 301 279 287 319 327 336 316 310 323 322 322 323 329 325
168 169 173 172 166 181 175 165 154 157 161 182 202 193 193 176 226 202 212 221 225 230 283 275 305 289 290 306 324 323 327 325 332 355 321 316 317 318 334 330 336 334 329
168 171 174 171 169 183 161 169 165 170 169 187 208 193 179 187 230 218 233 234 243 249 244 264 284 280 297 311 297 311 326 314 324 340 331 334 356 335 339 339 330 327 326
166 164 174 174 170 173 171 172 172 170 181 181 185 218 207 193 229 196 212 225 241 255 281 292 310 316 323 298 312 341 357 15 360 330 332 348 345 345 334 327 328 324 325
167 172 177 175 175 176 182 173 172 167 178 167 209 226 226 206 235 206 208 192 234 271 306 306 316 330 328 326 327 345 330 12 340 349 356 340 332 331 327 324 332 332 337
171 172 171 178 183 178 186 178 165 175 171 186 190 239 228 218 225 178 218 242 265 320 315 291 311 324 334 331 323 318 12 1 354 339 358 344 336 335 328 332 353 341 333
174 178 174 181 185 182 183 163 176 179 175 189 181 207 236 194 219 210 213 245 231 212 258 290 328 338 341 319 348 336 18 21 346 13 7 339 335 336 349 345 344 343 349
171 176 184 189 184 174 173 173 185 185 181 171 172 196 199 197 206 222 205 262 263 264 285 313 334 359 1 321 341 6 60 14 5 33 17 353 351 2 338 354 344 353 343
173 183 181 188 181 174 180 173 186 169 176 184 194 197 203 199 201 215 219 256 287 308 296 316 342 100 19 342 7 7 3 360 0 35 27 3 356 3 346 5 341 346 342
177 180 183 190 184 176 173 171 164 183 179 181 189 193 205 216 226 249 266 276 290 223 288 3 19 49 71 28 11 29 30 12 356 7 25 9 356 16 354 4 336 344 341
172 177 184 180 169 173 167 177 182 189 187 180 198 210 220 218 212 223 207 111 82 81 48 61 53 53 68 56 47 41 53 28 19 346 14 2 2 26 356 351 346 354 346
166 171 181 178 171 170 169 183 185 178 186 186 196 206 195 178 167 144 128 120 65 67 61 55 60 39 71 75 71 66 81 70 20 6 355 357 3 17 359 347 352 347 338
164 170 180 175 163 170 174 185 188 181 183 178 189 197 171 163 156 150 149 129 109 77 61 46 51 60 76 84 79 60 53 37 22 12 2 357 353 4 350 347 354 337 336